Location: B�di�
(14.6834°N, 3.1047°W)
Time: 03:18:14
(UTC+00:00)

Cosmos 2263 Rocket - Pass Details

Date: 24 January 2020
Orbit: 823 x 849 km, 71.0° (Epoch: 16 February)

Event Time Altitude Azimuth Distance (km) Brightness Sun altitude
Rises 19:22:57 0° 204° (SSW) 3,346 5.9 -18.3°
Reaches altitude 10° 19:25:25 10° 207° (SSW) 2,413 5.2 -18.9°
Maximum altitude 19:30:51 61° 287° (WNW) 930 2.6 -20.1°
Drops below altitude 10° 19:36:19 10° 7° (N) 2,417 4.4 -21.4°
Enters shadow 19:36:26 - 7° (N) 2,463 4.4 -21.4°
